Tracking 20383 objects as of 24-Feb-2020
HD Live streaming from Space Station
objects crossing your sky now
Track the group of recently launched Starlink satellites

GORIZONT 13

Track GORIZONT 13 now!
GORIZONT 13 is classified as:


NORAD ID: 17083
Int'l Code: 1986-090A
Perigee: 36,735.0 km
Apogee: 36,900.8 km
Inclination: 15.2 °
Period: 1,488.7 minutes
Semi major axis: 43188 km
RCS: 2.5139 m2 (large)
Launch date: November 18, 1986
Source: Commonwealth of Independent States (former USSR) (CIS)
Launch site: TYURATAM MISSILE AND SPACE COMPLEX (TTMTR)
aabbcc
Your satellite tracking list
Your tracking list is empty




NASA's NSSDC Master Catalog

Two Line Element Set (TLE):
1 17083U 86090A   20054.72563889 -.00000142  00000-0  00000+0 0  9998
2 17083  15.2265 346.0643 0019198 323.8273 228.9973  0.96726231 96364
Source of the keplerian elements: AFSPC